STARLINK-35656 (66391 NORAD) Tracking and Keplerian Element Data

This shows tracking and keplerian element data for the satellite.

Feedback or suggestion? Click here.




ElementValue
Catalog66391
NameSTARLINK-35656
Epoch Orbit758
Epoch Day353.95781417
Epoch Year2025
RAAN230.3743
Inclination53.1582
Eccentricity0.0001112
Argument of Perigee97.5128
Mean Anonmoly262.6003
Mean Motion15.39620577
Decay Rate0.00013095
L11 66391U 25257M 25353.95781417 .00013095 00000+0 33679-3 0 9994
L22 66391 53.1582 230.3743 0001112 97.5128 262.6003 15.39620577 7584



Live tracking and technical data element details for STARLINK-35656 (NORAD 66391). STARLINK-35656 can be tracked NOW for your location showing map with azimuth and elevation plus other details from your city location.







IsCatalogInMostPopularTable: catalog: 66391, numindb: 9
Update: records affected: 1



GetName: 66391 STARLINK-35656

Hit Count: updated at: Mon, 20 Apr 2026 10:27:50 GMT